This is the latest recevied weather packets stored in our database for station/object DM4XI-13. If no packets are shown the sender has not sent any weather packets the latest 10 day(s).
| Time | Temp. | Humidity | Pressure | Rain* | Wind** | Luminosity | Snow |
|---|---|---|---|---|---|---|---|
| 1777641503 | 20.56° C | 32% | 1024.2 hPa | 0 mm | 0.45 m/s, 184° | 524 W/m² | - |
| 1777641442 | 20.56° C | 33% | 1024.2 hPa | 0 mm | 0.45 m/s, 196° | 527 W/m² | - |
| 1777641381 | 20.56° C | 32% | 1024.2 hPa | 0 mm | 0.89 m/s, 188° | 530 W/m² | - |
| 1777641320 | 20.56° C | 34% | 1024.2 hPa | 0 mm | 0.89 m/s, 177° | 531 W/m² | - |
| 1777641259 | 20.56° C | 32% | 1024.3 hPa | 0 mm | 1.34 m/s, 191° | 533 W/m² | - |
| 1777641198 | 20.56° C | 32% | 1024.2 hPa | 0 mm | 0.45 m/s, 192° | 534 W/m² | - |
| 1777641137 | 21.11° C | 32% | 1024.2 hPa | 0 mm | 0.89 m/s, 337° | 534 W/m² | - |
| 1777641076 | 21.11° C | 32% | 1024.3 hPa | 0 mm | 1.34 m/s, 48° | 536 W/m² | - |
| 1777641015 | 21.11° C | 32% | 1024.2 hPa | 0 mm | 1.79 m/s, 189° | 538 W/m² | - |
| 1777640954 | 21.67° C | 32% | 1024.1 hPa | 0 mm | 1.79 m/s, 153° | 540 W/m² | - |
| 1777640893 | 21.67° C | 31% | 1024.3 hPa | 0 mm | 1.34 m/s, 204° | 541 W/m² | - |
| 1777640832 | 21.67° C | 33% | 1024.2 hPa | 0 mm | 0.45 m/s, 161° | 543 W/m² | - |
| 1777640771 | 21.67° C | 32% | 1024.3 hPa | 0 mm | 0.89 m/s, 78° | 544 W/m² | - |
| 1777640710 | 21.67° C | 32% | 1024.3 hPa | 0 mm | 0.45 m/s, 73° | 546 W/m² | - |
| 1777640649 | 21.67° C | 32% | 1024.3 hPa | 0 mm | 0.89 m/s, 167° | 549 W/m² | - |
| 1777640588 | 21.11° C | 34% | 1024.4 hPa | 0 mm | 0.45 m/s, 152° | 549 W/m² | - |
| 1777640527 | 21.11° C | 33% | 1024.4 hPa | 0 mm | 0.89 m/s, 101° | 549 W/m² | - |
| 1777640466 | 21.11° C | 34% | 1024.1 hPa | 0 mm | 0.45 m/s, 50° | 551 W/m² | - |
| 1777640405 | 21.11° C | 32% | 1024.3 hPa | 0 mm | 0.45 m/s, 330° | 553 W/m² | - |
| 1777640344 | 21.11° C | 32% | 1024.4 hPa | 0 mm | 1.34 m/s, 350° | 555 W/m² | - |
| 1777640283 | 21.11° C | 33% | 1024.3 hPa | 0 mm | 0.89 m/s, 103° | 556 W/m² | - |
| 1777640222 | 21.11° C | 32% | 1024.4 hPa | 0 mm | 1.34 m/s, 3° | 557 W/m² | - |
| 1777640161 | 21.11° C | 32% | 1024.3 hPa | 0 mm | 1.79 m/s, 76° | 557 W/m² | - |
| 1777640100 | 21.11° C | 32% | 1024.3 hPa | 0 mm | 1.79 m/s, 183° | 559 W/m² | - |
| 1777640039 | 21.11° C | 33% | 1024.4 hPa | 0 mm | 0.89 m/s, 179° | 561 W/m² | - |
* Rain latest hour (hover to see other rain measurements)
** Current wind speed in m/s (hover to see current wind gust speed)